ESEO (43792 NORAD) Tracking and Keplerian Element Data

This shows tracking and keplerian element data for the satellite.

Feedback or suggestion? Click here.




ElementValue
Catalog43792
NameESEO
Epoch Orbit537
Epoch Day10.35532887
Epoch Year2019
RAAN84.1648
Inclination97.7635
Eccentricity0.0014427
Argument of Perigee137.3333
Mean Anonmoly222.9011
Mean Motion14.95460702
Decay Rate3.73E-06
L11 43792U 18099AL 19010.35532887 .00000373 00000-0 38875-4 0 9992
L22 43792 97.7635 84.1648 0014427 137.3333 222.9011 14.95460702 5376

Live tracking and technical data element details for ESEO (NORAD 43792). ESEO can be tracked NOW for your location showing map with azimuth and elevation plus other details from your city location.

Track the satellite on the map from your city or location and see movement details for azimuth, elevation, latitude, longitude, range, height, and movement on the map or in text.







IsCatalogInMostPopularTable: catalog: 43792, numindb: 18
Update: records affected: 1



GetName: 43792 ESEO

Hit Count: updated at: Thu, 17 Jan 2019 15:34:54 GMT